Weather History for Hereford, TX

Change the Weather History Date:

Sunday, February 16, 2014

  Actual Average (KAMA) Record (KAMA)
Temperature  
Mean Temperature 52 °F 40 °F  
Max Temperature 77 °F 54 °F 81 °F (2011)
Min Temperature 27 °F 27 °F -4 °F (1895)
Degree Days  
Heating Degree Days 13 25  
Month to date heating degree days 416  
Since 1 July heating degree days 3001  
Cooling Degree Days 0 0  
Month to date cooling degree days 0  
Year to date cooling degree days 0  
Growing Degree Days 2 (Base 50)    
Moisture  
Dew Point 23 °F    
Average Humidity 45    
Maximum Humidity 88    
Minimum Humidity 9    
Precipitation  
Precipitation 0.00 in 0.01 in 1.58 in (1893)
Month to date precipitation 0.33  
Year to date precipitation 1.05  
Snow  
Snow 0.00 in 0.10 in 12.00 in (1893)
Month to date snowfall 2.1  
Since 1 July snowfall 13.2  
Snow Depth -    
Sea Level Pressure  
Sea Level Pressure 29.98 in    
Wind  
Wind Speed 10 mph (West)    
Max Wind Speed 28 mph    
Max Gust Speed 31 mph    
Visibility 10 miles    
Events      
T = Trace of Precipitation, MM = Missing Value Source: NWS Daily Summary

Daily Weather History Graph

Daily Weather History Graph

Search for Another Location

Airport:

Trip Planner

Search our weather history database for the weather conditions in past years. The results will help you decide how hot, cold, wet, or windy it might be!

Date:

Astronomy

Feb. 16, 2014 Rise Set
Actual Time 7:33 AM CST 6:33 PM CST
Civil Twilight 7:08 AM CST 6:59 PM CST
Nautical Twilight 6:38 AM CST 7:28 PM CST
Astronomical Twilight 6:09 AM CST 7:58 PM CST
Moon 8:25 PM CST (2/16) 8:10 AM CST (2/16)
Length of Visible Light 11h 50m
Length of Day
10h 59m
Full, 97% of the Moon is Illuminated
Feb 16
Full
Feb 22
Last Quarter
Mar 1
New
Mar 8
First Quarter
Mar 16
Full

Hourly Weather History & Observations

Time (CST) Temp. Windchill Dew Point Humidity Pressure Visibility Wind Dir Wind Speed Gust Speed Precip Events Conditions
12:15 AM 43.2 °F 37.9 °F 33.6 °F 69% 30.09 in 10.0 mi North 9.2 mph - N/A   Clear
12:35 AM 42.4 °F 37.0 °F 33.4 °F 70% 30.09 in 10.0 mi NNE 9.2 mph - N/A   Clear
12:55 AM 41.0 °F 34.3 °F 32.9 °F 73% 30.10 in 10.0 mi North 11.5 mph - N/A   Clear
1:15 AM 41.0 °F 34.7 °F 32.9 °F 73% 30.10 in 10.0 mi North 10.4 mph - N/A   Clear
1:35 AM 40.3 °F 33.9 °F 32.5 °F 74% 30.11 in 10.0 mi North 10.4 mph - N/A   Clear
1:55 AM 39.9 °F 33.9 °F 32.4 °F 74% 30.10 in 10.0 mi North 9.2 mph - N/A   Clear
2:15 AM 38.7 °F 32.9 °F 32.0 °F 77% 30.10 in 10.0 mi North 8.1 mph - N/A   Clear
2:35 AM 37.6 °F 31.6 °F 32.0 °F 80% 30.09 in 10.0 mi North 8.1 mph - N/A   Clear
2:55 AM 36.1 °F 30.6 °F 30.6 °F 80% 30.09 in 10.0 mi North 6.9 mph - N/A   Clear
3:15 AM 33.8 °F 28.6 °F 29.5 °F 84% 30.09 in 10.0 mi North 5.8 mph - N/A   Clear
3:35 AM 32.9 °F 26.7 °F 28.8 °F 85% 30.09 in 10.0 mi North 6.9 mph - N/A   Clear
3:55 AM 32.0 °F 24.8 °F 27.5 °F 83% 30.08 in 10.0 mi North 8.1 mph - N/A   Clear
4:15 AM 32.0 °F 25.6 °F 27.9 °F 85% 30.08 in 10.0 mi North 6.9 mph - N/A   Clear
4:35 AM 30.7 °F 23.3 °F 26.6 °F 85% 30.07 in 10.0 mi NNW 8.1 mph - N/A   Clear
4:55 AM 30.2 °F 22.6 °F 26.4 °F 86% 30.06 in 10.0 mi NNW 8.1 mph - N/A   Clear
5:15 AM 30.2 °F 23.4 °F 26.4 °F 86% 30.06 in 10.0 mi NNW 6.9 mph - N/A   Clear
5:35 AM 31.1 °F 25.4 °F 26.6 °F 83% 30.05 in 10.0 mi NW 5.8 mph - N/A   Clear
5:55 AM 30.2 °F 23.4 °F 26.2 °F 85% 30.05 in 10.0 mi NW 6.9 mph - N/A   Clear
6:15 AM 29.8 °F 23.0 °F 25.5 °F 84% 30.05 in 10.0 mi NNW 6.9 mph - N/A   Clear
6:35 AM 29.1 °F 23.0 °F 25.3 °F 86% 30.05 in 10.0 mi NW 5.8 mph - N/A   Clear
6:55 AM 28.6 °F 21.5 °F 24.3 °F 84% 30.05 in 10.0 mi WNW 6.9 mph - N/A   Clear
7:15 AM 27.9 °F 20.6 °F 24.6 °F 88% 30.05 in 10.0 mi WNW 6.9 mph - N/A   Clear
7:35 AM 28.4 °F 20.4 °F 24.8 °F 86% 30.06 in 10.0 mi WNW 8.1 mph - N/A   Clear
7:55 AM 29.7 °F 21.3 °F 25.9 °F 86% 30.08 in 10.0 mi NW 9.2 mph - N/A   Clear
8:15 AM 31.3 °F 24.7 °F 27.0 °F 84% 30.08 in 10.0 mi NW 6.9 mph - N/A   Clear
8:35 AM 33.4 °F 29.1 °F 28.6 °F 82% 30.08 in 10.0 mi WNW 4.6 mph - N/A   Clear
8:55 AM 36.1 °F 33.5 °F 30.4 °F 80% 30.07 in 10.0 mi WNW 3.5 mph - N/A   Clear
9:15 AM 39.4 °F - 31.8 °F 74% 30.07 in 10.0 mi Calm Calm - N/A   Clear
9:35 AM 42.6 °F - 32.4 °F 67% 30.07 in 10.0 mi Calm Calm - N/A   Clear
9:55 AM 45.1 °F - 31.8 °F 60% 30.06 in 10.0 mi Calm Calm - N/A   Clear
10:15 AM 46.8 °F - 30.2 °F 53% 30.05 in 10.0 mi Calm Calm - N/A   Clear
10:35 AM 48.2 °F - 31.1 °F 52% 30.05 in 10.0 mi SSW 4.6 mph - N/A   Clear
10:55 AM 49.6 °F - 31.5 °F 50% 30.05 in 10.0 mi SSW 5.8 mph - N/A   Clear
11:15 AM 52.5 °F - 31.8 °F 45% 30.03 in 10.0 mi South 9.2 mph - N/A   Clear
11:35 AM 55.0 °F - 31.5 °F 41% 30.02 in 10.0 mi South 10.4 mph - N/A   Clear
11:55 AM 56.7 °F - 31.5 °F 38% 30.00 in 10.0 mi South 12.7 mph 16.1 mph N/A   Clear
12:15 PM 58.1 °F - 30.9 °F 36% 29.99 in 10.0 mi SSW 12.7 mph 19.6 mph N/A   Clear
12:35 PM 60.6 °F - 30.7 °F 32% 29.97 in 10.0 mi SSW 11.5 mph 19.6 mph N/A   Clear
12:55 PM 63.0 °F - 30.6 °F 30% 29.95 in 10.0 mi SSW 15.0 mph 23.0 mph N/A   Clear
1:15 PM 68.0 °F - 29.8 °F 24% 29.93 in 10.0 mi SW 21.9 mph 26.5 mph N/A   Clear
1:35 PM 69.6 °F - 28.6 °F 22% 29.90 in 10.0 mi SSW 21.9 mph 28.8 mph N/A   Clear
1:55 PM 71.6 °F - 27.0 °F 19% 29.88 in 10.0 mi SW 24.2 mph 31.1 mph N/A   Clear
2:15 PM 73.4 °F - 23.5 °F 16% 29.88 in 10.0 mi SW 27.6 mph - N/A   Clear
2:35 PM 76.1 °F - 21.7 °F 13% 29.87 in 10.0 mi North - - N/A   Clear
2:55 PM 77.0 °F - 19.4 °F 12% 29.86 in 10.0 mi North - - N/A   Clear
3:15 PM 77.4 °F - 14.7 °F 9% 29.86 in 10.0 mi North - - N/A   Clear
3:35 PM 76.3 °F - 14.9 °F 10% 29.86 in 10.0 mi North - - N/A   Clear
3:55 PM 75.9 °F - 14.7 °F 10% 29.86 in 10.0 mi West 18.4 mph 28.8 mph N/A   Clear
4:15 PM 75.4 °F - 14.9 °F 10% 29.85 in 10.0 mi North - - N/A   Clear
4:35 PM 75.0 °F - 14.9 °F 10% 29.85 in 10.0 mi North - - N/A   Clear
4:55 PM 75.2 °F - 16.5 °F 11% 29.85 in 10.0 mi SW 18.4 mph - N/A   Clear
5:15 PM 74.8 °F - 17.1 °F 11% 29.85 in 10.0 mi WSW 17.3 mph - N/A   Clear
5:35 PM 74.3 °F - 18.1 °F 12% 29.85 in 10.0 mi North - - N/A   Clear
5:55 PM 73.0 °F - 18.1 °F 13% 29.85 in 10.0 mi SW 17.3 mph - N/A   Clear
6:15 PM 70.3 °F - 19.0 °F 14% 29.85 in 10.0 mi WSW 13.8 mph - N/A   Clear
6:35 PM 69.6 °F - 15.6 °F 13% 29.86 in 10.0 mi West 11.5 mph - N/A   Clear
6:55 PM 69.1 °F - 12.2 °F 11% 29.86 in 10.0 mi WSW 18.4 mph 23.0 mph N/A   Clear
7:15 PM 68.4 °F - 12.7 °F 12% 29.87 in 10.0 mi WSW 13.8 mph - N/A   Clear
7:35 PM 69.1 °F - 12.2 °F 11% 29.88 in 10.0 mi WSW 18.4 mph - N/A   Clear
7:55 PM 69.8 °F - 12.0 °F 11% 29.88 in 10.0 mi North - - N/A   Clear
8:15 PM 68.4 °F - 12.0 °F 11% 29.89 in 10.0 mi WSW 19.6 mph - N/A   Clear
8:35 PM 64.8 °F - 11.7 °F 13% 29.89 in 10.0 mi West 15.0 mph - N/A   Clear
8:55 PM 59.9 °F - 11.5 °F 15% 29.89 in 10.0 mi West 12.7 mph - N/A   Clear
9:15 PM 62.8 °F - 12.0 °F 14% 29.89 in 10.0 mi WSW 15.0 mph - N/A   Clear
9:35 PM 64.6 °F - 12.0 °F 13% 29.89 in 10.0 mi WSW 18.4 mph - N/A   Clear
9:55 PM 62.8 °F - 12.2 °F 14% 29.90 in 10.0 mi WSW 18.4 mph - N/A   Clear
10:15 PM 62.2 °F - 11.7 °F 14% 29.91 in 10.0 mi WSW 17.3 mph 21.9 mph N/A   Clear
10:35 PM 59.2 °F - 11.7 °F 15% 29.91 in 10.0 mi WSW 15.0 mph 19.6 mph N/A   Clear
10:55 PM 55.2 °F - 12.6 °F 18% 29.93 in 10.0 mi West 13.8 mph - N/A   Clear
11:15 PM 48.6 °F - 14.4 °F 25% 29.93 in 10.0 mi West 11.5 mph - N/A   Clear
11:35 PM 48.7 °F - 14.0 °F 25% 29.94 in 10.0 mi West 10.4 mph - N/A   Clear
11:55 PM 49.1 °F - 13.6 °F 24% 29.95 in 10.0 mi West 11.5 mph - N/A   Clear